Regional Weather Roundup
Issued by NWS

Home | Current Version | Previous Version | Text Only | Print | Product List | Glossary Off
Versions: 1 2 3 4 5 6 7 8 9 10 11 12 13 14 15 16 17 18 19 20 21 22 23 24 25 26 27 28 29 30 31 32 33 34 35 36 37 38 39 40 41 42 43 44 45 46 47 48 49 50

000
ASUS43 KMPX 281101
RWRMN
WEATHER ROUNDUP FOR MINNESOTA
NATIONAL WEATHER SERVICE TWIN CITIES/CHANHASSEN MN
600 AM CDT FRI APR 28 2017


NOTE: "FAIR" INDICATES FEW OR NO CLOUDS BELOW 12,000 FEET WITH NO
SIGNIFICANT WEATHER AND/OR OBSTRUCTIONS TO VISIBILITY. N/A MEANS
CURRENT SKY AND/OR WEATHER CONDITIONS ARE NOT AVAILABLE.

MNZ060>063-068>070-281200-
   Twin Cities Metro

CITY           SKY/WX    TMP DP  RH WIND       PRES   REMARKS
TWIN CITIES    CLOUDY    36  28  73 W6        29.85R
ST PAUL        CLOUDY    36  30  79 W5        29.86R
CRYSTAL        CLOUDY    36  28  73 NW6       29.84
LAKEVILLE      PTCLDY    34  28  80 W5        29.85R WCI  30
EDEN PRAIRIE   PTCLDY    36  29  75 W6        29.84R
SOUTH ST PAUL  CLOUDY    36  29  76 CALM      29.85R
LAKE ELMO      CLOUDY    36  30  80 NW8       29.85R
$$
MNZ001>005-007-008-013>017-022>024-027-028-281200-
   Northwest Minnesota

CITY           SKY/WX    TMP DP  RH WIND       PRES   REMARKS
BEMIDJI        PTCLDY    26  23  90 W9        29.83R WCI  16
HALLOCK        CLEAR     28  27  93 W7        29.89S WCI  21
ROSEAU         CLOUDY    28  25  86 W8        29.85R WCI  20
WARROAD        PTCLDY    28  25  86 W7        29.83R WCI  21
THIEF RVR FALL CLEAR     27  24  89 NW7       29.88R WCI  19
CROOKSTON      CLEAR     30  28  93 NW6       29.91R WCI  24
FOSSTON        MOCLDY    28  25  86 NW7       29.86S WCI  21
DETROIT LAKES  PTCLDY    30  28  93 NW9       29.87F WCI  22
MOORHEAD       CLEAR     28  27  93 W5        29.90S WCI  23
PARK RAPIDS    CLOUDY    30  23  75 NW10      29.84R WCI  21
MAHNOMEN       CLOUDY    28  26  94 W5        29.88R WCI  22
$$
MNZ006-009>011-018-025>026-281200-
   North Central Minnesota

CITY           SKY/WX    TMP DP  RH WIND       PRES   REMARKS
BAUDETTE       CLOUDY    30  25  81 NW15      29.78R WCI  19
FLAG ISLAND    CLOUDY    30  25  80 NW15      29.79R WCI  19
INTL FALLS     LGT SNOW  28  24  85 W9        29.74R FOG     WCI  19
WASKISH        PTCLDY    28  27  93 W14       29.81R WCI  17
BIG FORK       CLOUDY    27  23  86 W3        29.78R
LONGVILLE      CLOUDY    30  25  80 NW8G16    29.81R WCI  23
GRAND RAPIDS   CLOUDY    28  23  81 NW12      29.81R WCI  18
CRANE LAKE     LGT SNOW  25  23  93 CALM      29.74R
ORR            CLOUDY    27  21  80 W9        29.71R WCI  17
COOK           CLOUDY    25  21  86 W10       29.74R WCI  15
WALKER         CLOUDY    27  23  87 W9        29.83R WCI  17
$$
MNZ012-019>021-037-281200-
   Northeast Minnesota

CITY           SKY/WX    TMP DP  RH WIND       PRES   REMARKS
DULUTH         CLOUDY    29  23  78 W12       29.74R WCI  19
ELY            CLOUDY    27  21  80 W16G22    29.69R WCI  14
HIBBING        CLOUDY    26  21  81 NW14G21   29.75R WCI  14
EVELETH        CLOUDY    28  20  72 NW12G22   29.75R WCI  17
DULUTH HARBOR  CLOUDY    34  27  75 W14       29.80R WCI  24
TWO HARBORS    CLOUDY    30  25  80 W10       29.72R WCI  21
SILVER BAY     CLOUDY    28  25  86 W6        29.71R WCI  22
GRAND MARAIS     N/A     30  26  85 W9        29.69R WCI  22
G MARAIS ARPRT CLOUDY    23  18  80 CALM      29.62R
$$
MNZ029>031-032-039>041-046>048-054>057-064-281200-
   West Central Minnesota

CITY           SKY/WX    TMP DP  RH WIND       PRES   REMARKS
FERGUS FALLS   CLEAR     27  27 100 N8        29.89S WCI  18
WHEATON        CLEAR     28  25  86 NW7       29.92R WCI  21
MORRIS         CLEAR     28  27  93 NW10      29.87R WCI  19
ALEXANDRIA     CLEAR     30  28  92 N9        29.86R WCI  22
ELBOW LAKE     FAIR      30  28  92 NW9       29.88S WCI  21
WADENA         CLOUDY    28  25  86 NW8       29.85S WCI  20
GLENWOOD       CLEAR     30  28  93 NW7       29.86R WCI  23
APPLETON       CLEAR     30  27  86 N8        29.88R WCI  23
BENSON         CLEAR     28  25  86 N7        29.89R WCI  21
ORTONVILLE     CLEAR     30  27  86 NW9       29.89R WCI  22
MADISON        CLEAR     32  28  86 NW8       29.89R WCI  25
WILLMAR        FAIR      30  28  93 NW7       29.87S WCI  23
$$
MNZ033>034-036-042>043-049>051-058-059-281200-
   Central Minnesota

CITY           SKY/WX    TMP DP  RH WIND       PRES   REMARKS
ST CLOUD       CLEAR     31  25  78 NW7       29.85R WCI  24
SAUK CENTRE    FAIR      31  25  81 NW10      29.86R WCI  22
PAYNESVILLE    CLEAR     31  29  94 CALM      29.86R
AITKIN         CLOUDY    32  21  64 W6        29.80S WCI  26
PINE RIVER     PTCLDY    28  23  80 W5        29.87R WCI  23
BRAINERD       MOCLDY    29  22  75 NW12      29.84R WCI  19
STAPLES        PTCLDY    25  21  86 NW8       29.85S WCI  16
LONG PRAIRIE   FAIR      28  25  86 W9        29.86R WCI  20
LITTLE FALLS   CLEAR     30  23  74 NW5       29.85R WCI  25
LITCHFIELD     CLEAR     36  30  80 NW8       29.85R
BUFFALO        CLOUDY    35  28  75 NW6       29.87R WCI  30
MAPLE LAKE     MOCLDY    35  29  80 NW6       29.86R WCI  29
HUTCHINSON     CLEAR     33  32  93 W6        29.87R WCI  28
$$
MNZ037-044-045-052-053-281200-
   East Central Minnesota

CITY           SKY/WX    TMP DP  RH WIND       PRES   REMARKS
PRINCETON      CLEAR     30  25  80 NW6       29.86R WCI  24
MORA           CLEAR     30  23  74 W8        29.85R WCI  23
CAMBRIDGE      CLEAR     34  21  60 W6        29.83R WCI  29
RUSH CITY      CLOUDY    30  24  76 W7        29.85R WCI  23
MOOSE LAKE     CLOUDY    30  27  86 W5        29.79S WCI  25
HINCKLEY       FAIR      32  27  80 NW8       29.83R WCI  25
CLOQUET        CLOUDY    28  21  74 W10       29.77R WCI  19
MCGREGOR       CLOUDY    30  27  86 W7        29.80S WCI  23
$$
MNZ071>073-080-081-089-090-097-098-281200-
   Southwest Minnesota

CITY           SKY/WX    TMP DP  RH WIND       PRES   REMARKS
MONTEVIDEO     CLEAR     30  27  86 NW3       29.88R
GRANITE FALLS  CLEAR     31  29  92 NW6       29.89S WCI  25
CANBY          CLEAR     32  30  91 NW7       29.90R WCI  26
MARSHALL       CLEAR     29  26  89 NW9       29.88R WCI  20
REDWOOD FALLS  CLEAR     32  27  81 NW8       29.87R WCI  25
OLIVIA         CLEAR     32  30  93 NW6       29.86R WCI  26
PIPESTONE      CLEAR     28  23  80 E3        29.84F
WINDOM         CLEAR     25  23  93 W3        29.85F
WORTHINGTON    CLEAR     25  24  96 N5        29.85F WCI  19
JACKSON        CLEAR     28  27  93 CALM      29.85F
TRACY          CLEAR     32  30  90 NW8       29.87S WCI  25
SLAYTON        CLEAR     25  23  93 CALM      29.86F
$$
MNZ065>067-074>077-082>085-091>093-281200-
   South Central Minnesota

CITY           SKY/WX    TMP DP  RH WIND       PRES   REMARKS
MANKATO        CLEAR     31  27  85 W3        29.87R
NEW ULM        CLEAR     28  27  93 NW5       29.86S WCI  23
ST JAMES       CLEAR     28  27  93 SW5       29.86F WCI  23
FAIRMONT       CLEAR     27  26  96 CALM      29.86F
GLENCOE        CLEAR     33  32  95 W3        29.86R
FARIBAULT      PTCLDY    30  28  93 S3        29.87R
OWATONNA       CLEAR     28  27  93 CALM      29.86S
WASECA         CLEAR     30  28  93 SW3       29.87S
ALBERT LEA     CLEAR     27  27 100 N3        29.85S
$$
MNZ078>079-086>088-094>096-281200-
   Southeast Minnesota

CITY           SKY/WX    TMP DP  RH WIND       PRES   REMARKS
ROCHESTER      CLEAR     29  26  89 SW8       29.85S WCI  21
RED WING       CLOUDY    36  27  69 CALM      29.85R
STANTON        CLOUDY    34  30  85 SW6       29.85R WCI  29
DODGE CENTER   CLEAR     28  27  93 SW6       29.84F WCI  22
WINONA         CLEAR     34  28  80 CALM      29.88S
AUSTIN         CLEAR     28  27  93 CALM      29.84F
PRESTON        CLEAR     28  25  87 W3        29.86S
$$
ABBREVIATIONS USED IN REMARKS
   TC - TEMPERATURES IN CELSIUS
  WCI - WIND CHILL INDEX
   HX - HEAT INDEX
  VSB - VISIBILITY
$$




USA.gov is the U.S. government's official web portal to all federal, state and local government web resources and services.